パンスターズ彗星

C/2016 R2 ( PanSTARRS )

English version
Home page
Updated on September 23, 2018

---------------------------------------------------------------------

・ プロフィール

発見日 2016年9月7日
発見光度 19.1等
発見者 Pan-STARRS 1 telescope (Haleakala)

・ 写真集

・ 軌道要素

Epoch 2018 May 2.0 TT = JDT 2458240.5
T 2018 May  9.58472 TT                                  MPCW
q   2.6023594            (2000.0)            P               Q
z  +0.0014030      Peri.   33.19260     -0.14726926     -0.52443222
 +/-0.0000003      Node    80.56881     +0.61562102     -0.71221786
e   0.9963490      Incl.   58.22367     +0.77415924     +0.46660108
From 2962 observations 2016 Aug. 30-2018 Sept. 18, mean residual 0".5.

・ 星図

・ 光度変化

        m1 = 3.5 + 5 logΔ + 12.0 log r

---------------------------------------------------------------------

軌道要素はM.P.E.C. 2018-S50に掲載されたものです。
星図はステラナビゲータ Ver.10 (アストロアーツ) で作成したものです。
光度グラフはComet for Windowsで作成したものです。

---------------------------------------------------------------------

Copyright(C) Seiichi Yoshida (comet@aerith.net). All rights reserved.